TimeEST,TemperatureF,Dew PointF,Humidity,Sea Level PressureIn,VisibilityMPH,Wind Direction,Wind SpeedMPH,Gust SpeedMPH,PrecipitationIn,Events,Conditions,WindDirDegrees,DateUTC
12:00 AM,30.2,14.0,51,29.75,1.2,West,18.4,28.8,0.00,Snow,Light Snow,270,2013-02-01 05:00:00
12:11 AM,30.2,14.0,51,29.75,2.0,West,17.3,29.9,0.00,Snow,Light Snow,280,2013-02-01 05:11:00
12:18 AM,30.2,12.2,47,29.75,3.0,West,16.1,29.9,0.00,Snow,Light Snow,280,2013-02-01 05:18:00
12:30 AM,30.2,10.4,44,29.75,8.0,West,19.6,28.8,0.00,,Overcast,280,2013-02-01 05:30:00
12:53 AM,30.9,10.9,43,29.78,5.0,West,18.4,32.2,0.00,Snow,Light Snow,270,2013-02-01 05:53:00
1:53 AM,30.9,7.0,37,29.79,10.0,WNW,18.4,31.1,0.00,,Overcast,290,2013-02-01 06:53:00
2:53 AM,30.9,8.1,38,29.80,10.0,West,12.7,20.7,N/A,,Overcast,280,2013-02-01 07:53:00
3:53 AM,32.0,9.0,38,29.82,10.0,West,9.2,21.9,0.00,,Overcast,280,2013-02-01 08:53:00
4:53 AM,30.9,10.9,43,29.84,10.0,West,16.1,24.2,N/A,,Overcast,280,2013-02-01 09:53:00
5:18 AM,30.2,12.2,47,29.82,3.0,West,13.8,25.3,0.00,Snow,Light Snow,270,2013-02-01 10:18:00
5:47 AM,30.2,12.2,47,29.84,1.8,WNW,17.3,29.9,0.00,Snow,Light Snow,290,2013-02-01 10:47:00
5:53 AM,28.9,12.9,51,29.87,1.8,West,16.1,29.9,0.00,Snow,Light Snow,270,2013-02-01 10:53:00
5:57 AM,28.4,12.2,51,29.85,3.0,West,13.8,26.5,0.00,Snow,Light Snow,270,2013-02-01 10:57:00
6:21 AM,30.2,12.2,47,29.86,2.5,West,16.1,28.8,0.00,Snow,Light Snow,280,2013-02-01 11:21:00
6:28 AM,30.2,10.4,44,29.86,4.0,WNW,15.0,27.6,0.00,Snow,Light Snow,290,2013-02-01 11:28:00
6:53 AM,30.0,10.9,45,29.91,4.0,WNW,15.0,26.5,0.00,Snow,Light Snow,300,2013-02-01 11:53:00
7:23 AM,28.4,12.2,51,29.90,2.5,West,17.3,29.9,0.00,Snow,Light Snow,280,2013-02-01 12:23:00
7:33 AM,30.2,10.4,44,29.91,3.0,West,16.1,28.8,0.00,Snow,Light Snow,270,2013-02-01 12:33:00
7:48 AM,30.2,12.2,47,29.92,2.5,West,20.7,31.1,0.00,Snow,Light Snow,280,2013-02-01 12:48:00
7:53 AM,30.0,12.0,47,29.95,2.5,West,18.4,31.1,0.00,Snow,Light Snow,280,2013-02-01 12:53:00
7:58 AM,30.2,10.4,44,29.92,1.2,West,18.4,26.5,0.00,Snow,Light Snow,270,2013-02-01 12:58:00
8:28 AM,30.2,10.4,44,29.94,2.0,West,15.0,27.6,0.00,Snow,Light Snow,280,2013-02-01 13:28:00
8:40 AM,30.2,12.2,47,29.95,3.0,West,13.8,34.5,0.00,Snow,Light Snow,280,2013-02-01 13:40:00
8:48 AM,30.2,10.4,44,29.95,5.0,West,13.8,27.6,0.00,Snow,Light Snow,270,2013-02-01 13:48:00
8:53 AM,30.0,10.9,45,29.99,2.5,West,15.0,28.8,0.00,Snow,Light Snow,280,2013-02-01 13:53:00
9:03 AM,30.2,10.4,44,29.96,1.8,West,16.1,31.1,0.00,Snow,Light Snow,280,2013-02-01 14:03:00
9:07 AM,30.2,10.4,44,29.97,2.0,West,18.4,28.8,0.00,Snow,Light Snow,280,2013-02-01 14:07:00
9:20 AM,30.2,10.4,44,29.97,4.0,West,16.1,27.6,0.00,Snow,Light Snow,270,2013-02-01 14:20:00
10:05 AM,30.2,10.4,44,29.99,6.0,West,17.3,26.5,0.00,Snow,Light Snow,270,2013-02-01 15:05:00
10:53 AM,32.0,10.9,42,30.05,10.0,West,18.4,28.8,0.00,,Overcast,270,2013-02-01 15:53:00
11:53 AM,32.0,10.0,40,30.06,9.0,West,19.6,29.9,0.00,,Overcast,260,2013-02-01 16:53:00
12:53 PM,32.0,8.1,37,30.07,10.0,West,20.7,29.9,N/A,,Overcast,270,2013-02-01 17:53:00
1:53 PM,32.0,8.1,37,30.08,10.0,West,15.0,31.1,N/A,,Overcast,270,2013-02-01 18:53:00
2:43 PM,30.2,10.4,44,30.07,1.8,West,17.3,29.9,0.00,Snow,Light Snow,280,2013-02-01 19:43:00
2:53 PM,30.0,8.1,40,30.10,3.0,West,16.1,28.8,0.00,Snow,Light Snow,260,2013-02-01 19:53:00
3:53 PM,30.0,10.0,43,30.13,2.5,West,16.1,28.8,0.00,Snow,Light Snow,260,2013-02-01 20:53:00
4:03 PM,30.2,8.6,40,30.10,6.0,West,17.3,28.8,0.00,Snow,Light Snow,260,2013-02-01 21:03:00
4:53 PM,32.0,3.9,31,30.14,10.0,West,12.7,21.9,0.00,,Overcast,280,2013-02-01 21:53:00
5:49 PM,28.4,12.2,51,30.14,1.8,WSW,18.4,27.6,0.00,Snow,Light Snow,250,2013-02-01 22:49:00
5:53 PM,28.0,12.0,51,30.17,1.5,WSW,19.6,27.6,0.00,Snow,Light Snow,250,2013-02-01 22:53:00
6:08 PM,28.4,12.2,51,30.14,3.0,West,18.4,25.3,0.00,Snow,Light Snow,260,2013-02-01 23:08:00
6:14 PM,28.4,12.2,51,30.15,1.8,West,17.3,24.2,0.00,Snow,Light Snow,270,2013-02-01 23:14:00
6:22 PM,30.2,12.2,47,30.15,3.0,West,11.5,23.0,0.00,Snow,Light Snow,270,2013-02-01 23:22:00
6:29 PM,28.4,12.2,51,30.16,1.8,West,15.0,25.3,0.00,Snow,Light Snow,260,2013-02-01 23:29:00
6:40 PM,28.4,12.2,51,30.15,1.0,West,9.2,32.2,0.00,Snow,Light Snow,260,2013-02-01 23:40:00
6:44 PM,30.2,10.4,44,30.16,2.5,West,11.5,26.5,0.00,Snow,Light Snow,280,2013-02-01 23:44:00
6:51 PM,30.2,10.4,44,30.16,9.0,West,17.3,25.3,0.00,,Overcast,270,2013-02-01 23:51:00
6:53 PM,30.0,10.9,45,30.19,7.0,West,20.7,27.6,0.00,Snow,Light Snow,260,2013-02-01 23:53:00
7:10 PM,30.2,10.4,44,30.16,2.5,West,16.1,27.6,0.00,Snow,Light Snow,270,2013-02-02 00:10:00
7:19 PM,21.2,10.4,63,30.16,4.0,West,13.8,26.5,0.00,Snow,Light Snow,280,2013-02-02 00:19:00
7:39 PM,28.4,12.2,51,30.17,1.5,WSW,19.6,26.5,0.00,Snow,Light Snow,240,2013-02-02 00:39:00
7:42 PM,28.4,15.8,59,30.17,0.8,SW,13.8,26.5,0.00,Snow,Light Snow,230,2013-02-02 00:42:00
7:47 PM,28.4,15.8,59,30.17,0.8,SW,11.5,26.5,0.00,Snow,Light Snow,230,2013-02-02 00:47:00
7:51 PM,28.4,15.8,59,30.18,1.2,SW,12.7,20.7,0.00,Snow,Light Snow,230,2013-02-02 00:51:00
7:53 PM,28.9,14.0,54,30.20,1.2,WSW,9.2,20.7,0.00,Snow,Light Snow,240,2013-02-02 00:53:00
8:05 PM,30.2,14.0,51,30.18,2.5,WSW,11.5,18.4,0.00,Snow,Light Snow,250,2013-02-02 01:05:00
8:10 PM,30.2,14.0,51,30.18,1.0,SW,13.8,20.7,0.00,Snow,Light Snow,230,2013-02-02 01:10:00
8:14 PM,30.2,14.0,51,30.18,0.8,SW,13.8,23.0,0.00,Snow,Light Snow,220,2013-02-02 01:14:00
8:24 PM,26.6,14.0,59,30.18,0.8,SW,15.0,23.0,0.00,Snow,Light Snow,220,2013-02-02 01:24:00
8:27 PM,26.6,12.2,55,30.18,1.0,SW,13.8,23.0,0.00,Snow,Light Snow,220,2013-02-02 01:27:00
8:37 PM,26.6,12.2,55,30.19,1.5,SW,17.3,23.0,0.00,Snow,Light Snow,230,2013-02-02 01:37:00
8:43 PM,26.6,12.2,55,30.19,1.0,SW,15.0,23.0,0.00,Snow,Light Snow,220,2013-02-02 01:43:00
8:53 PM,26.1,12.9,58,30.22,1.0,SW,15.0,23.0,0.00,Snow,Light Snow,230,2013-02-02 01:53:00
9:05 PM,26.6,12.2,55,30.19,0.5,SW,12.7,21.9,0.00,Snow,Snow,220,2013-02-02 02:05:00
9:24 PM,26.6,12.2,55,30.19,0.5,SW,12.7,-,0.00,Snow,Snow,220,2013-02-02 02:24:00
9:35 PM,26.6,12.2,55,30.19,1.0,SW,13.8,-,0.00,Snow,Light Snow,220,2013-02-02 02:35:00
9:38 PM,26.6,12.2,55,30.19,1.2,SW,13.8,-,0.00,Snow,Light Snow,220,2013-02-02 02:38:00
9:47 PM,26.6,12.2,55,30.19,1.0,SW,15.0,24.2,0.00,Snow,Light Snow,220,2013-02-02 02:47:00
9:53 PM,26.1,12.0,55,30.22,1.2,SW,13.8,-,0.00,Snow,Light Snow,220,2013-02-02 02:53:00
10:02 PM,26.6,10.4,51,30.19,3.0,SW,16.1,21.9,0.00,Snow,Light Snow,220,2013-02-02 03:02:00
10:24 PM,19.4,10.4,68,30.20,2.0,SW,15.0,21.9,0.00,Snow,Light Snow,220,2013-02-02 03:24:00
10:32 PM,23.0,10.4,59,30.20,1.0,SW,18.4,27.6,0.00,Snow,Light Snow,220,2013-02-02 03:32:00
10:39 PM,24.8,10.4,54,30.20,0.8,SSW,15.0,26.5,0.00,Snow,Light Snow,210,2013-02-02 03:39:00
10:51 PM,24.8,10.4,54,30.20,1.0,SSW,15.0,24.2,0.00,Snow,Light Snow,210,2013-02-02 03:51:00
10:53 PM,25.0,10.9,55,30.22,0.8,SSW,13.8,24.2,0.00,Snow,Light Snow,210,2013-02-02 03:53:00
11:13 PM,26.6,10.4,51,30.19,1.2,SSW,15.0,23.0,0.00,Snow,Light Snow,210,2013-02-02 04:13:00
11:18 PM,24.8,8.6,50,30.19,2.0,SSW,15.0,26.5,0.00,Snow,Light Snow,210,2013-02-02 04:18:00
11:28 PM,24.8,6.8,46,30.19,6.0,SSW,16.1,-,0.00,,Haze,210,2013-02-02 04:28:00
11:39 PM,24.8,6.8,46,30.19,10.0,SW,15.0,23.0,0.00,,Overcast,220,2013-02-02 04:39:00
11:53 PM,23.0,6.1,48,30.22,10.0,SSW,13.8,-,0.00,,Overcast,210,2013-02-02 04:53:00